Location: Ariel
(45.9570°N, 122.5700°W)
Time: 11:09:54
(UTC-07:00)

Transit 2A Rocket - Pass Details

Date: 22 July 2019
Orbit: 590 x 913 km, 66.7° (Epoch: 24 August)

Event Time Altitude Azimuth Distance (km) Brightness Sun altitude
Exits shadow 04:16:14 16° 215° (SW) 2,137 6.6 -12.3°
Maximum altitude 04:21:04 84° 303° (WNW) 876 5.3 -11.7°
Drops below altitude 10° 04:26:43 10° 32° (NNE) 2,420 9.0 -11.0°
Sets 04:29:05 0° 33° (NNE) 3,308 10.2 -10.8°
